Probability
3 3 3 2 2 3 3 3 2 1 2 3 3 3 1 0 0 0 0 0 0 0 0 0 0 0 0 0 0 0 0 0 0 0 0 0 0 0 0 0 0 0 0
1 1 1 1 1 1 1 1 1 1 2 2 3 3 2 1 0 0 0 0 0 0 0 0 0 0 0 0 0 0 0 0 0 0 0 0 0 0 0 0 0 0 0
0 0 0 0 0 0 0 0 0 1 2 2 2 2 2 1 0 0 0 0 0 0 0 0 0 0 0 0 0 0 0 0 0 0 0 0 0 0 0 0 0 0 0
1 1 0 0 0 0 0 0 0 0 1 1 1 1 1 0 0 0 0 0 0 0 0 0 0 0 0 0 0 0 0 0 0 0 0 0 0 0 0 0 0 0 0
2 2 2 2 1 0 0 0 0 0 0 0 0 0 0 0 0 0 1 0 0 0 0 0 0 0 0 0 0 0 0 0 0 0 0 0 0 0 0 0 0 0 0
2 2 3 4 2 0 1 1 1 0 0 0 0 0 0 0 0 0 0 0 0 0 0 0 0 0 0 0 0 0 0 0 0 0 0 0 0 0 0 0 0 0 0
2 1 3 4 3 1 2 2 2 1 0 0 0 0 0 0 0 0 0 0 0 0 0 0 0 0 0 0 0 0 0 0 0 0 0 0 0 0 0 0 0 0 0
1 1 2 3 2 2 3 4 4 3 1 0 1 1 1 0 0 0 0 0 0 0 0 0 0 0 0 0 0 0 0 0 0 0 0 0 0 0 0 0 0 0 0
1 2 3 3 3 3 4 5 5 4 2 1 2 2 2 1 0 0 0 0 0 0 0 0 0 0 0 0 0 0 0 0 0 0 0 0 0 0 0 0 0 0 0
4 4 3 3 3 3 4 4 4 4 4 3 3 2 2 1 0 0 0 0 0 0 0 0 0 0 0 0 0 0 0 0 0 0 0 0 0 0 0 0 0 0 0
6 5 4 4 3 3 3 3 3 4 5 5 2 1 1 1 0 0 0 0 0 0 0 0 0 0 0 0 0 0 0 0 0 0 0 0 0 0 0 0 0 0 0
5 5 5 4 4 3 3 3 3 3 4 4 3 1 0 0 0 0 0 0 0 0 0 0 0 0 0 0 0 0 0 0 0 0 0 0 0 0 0 0 0 0 0
5 5 4 4 3 3 4 4 4 4 4 4 3 2 1 0 0 0 0 0 0 0 0 0 0 0 0 0 0 0 0 0 0 0 0 0 0 0 0 0 0 0 0
5 5 4 4 4 4 5 5 5 4 4 3 4 4 3 2 1 0 0 0 0 0 0 0 0 0 0 0 0 0 0 0 0 0 0 0 0 0 0 0 0 0 0
5 5 6 6 6 5 4 4 3 3 3 3 4 5 5 4 3 1 0 0 0 0 0 0 0 0 0 0 0 0 0 0 0 0 0 0 0 0 0 0 0 0 0
3 5 6 6 6 6 4 3 1 1 1 1 2 3 3 3 2 0 0 0 0 0 0 0 0 0 0 0 0 0 0 0 0 0 0 0 0 0 0 0 0 0 0
1 2 4 5 5 5 4 2 1 0 0 0 0 1 1 1 0 0 0 0 0 0 0 0 0 0 0 0 0 0 0 0 0 0 0 0 0 0 0 0 0 0 0
0 0 1 2 2 3 3 2 1 0 0 0 0 0 0 0 0 0 0 0 0 0 0 0 0 0 0 0 0 0 0 0 0 0 0 0 0 0 0 0 0 0 0
0 0 0 0 0 1 1 1 0 0 0 0 0 0 0 0 0 0 0 0 0 0 0 0 0 0 0 0 0 0 0 0 0 0 0 0 0 0 0 0 0 0 0
0 0 0 0 0 0 0 0 0 0 0 0 0 0 0 0 0 0 0 0 0 0 0 0 0 0 0 0 0 0 0 0 0 0 0 0 0 0 0 0 0 0 0
0 0 0 0 0 0 0 0 0 0 0 0 0 0 0 0 0 0 0 0 0 0 0 0 0 0 0 0 0 0 0 0 0 0 0 0 0 0 0 0 0 0 0
0 0 0 0 0 0 0 0 0 0 0 0 0 0 0 0 0 0 0 0 0 0 0 0 0 0 0 0 0 0 0 0 0 0 0 0 0 0 0 0 0 0 0
0 0 0 0 0 0 0 0 0 0 0 0 0 0 0 0 0 0 0 0 0 0 0 0 0 0 0 0 0 0 0 0 0 0 0 0 0 0 0 0 0 0 0
0 0 0 0 0 0 0 0 0 0 0 0 0 0 0 0 0 0 0 0 0 0 0 0 0 0 0 0 0 0 0 0 0 0 0 0 0 0 0 0 0 0 0
0 0 0 0 0 0 0 0 0 0 0 0 0 0 0 0 0 0 0 0 0 0 0 0 0 0 0 0 0 0 0 0 0 0 0 0 0 0 0 0 0 0 0
0 0 0 0 0 0 0 0 0 0 0 0 0 0 0 0 0 0 0 0 0 0 0 0 0 0 0 0 0 0 0 0 0 0 0 0 0 0 0 0 0 0 0
Wind_Speed
8 8 8 8 9 8 8 9 8 7 8 8 8 8 7 6 6 5 5 5 5 4 3 4 4 3 2 1 1 1 2 3 3 3 2 2 2 3 2 3 4 5 6
7 7 8 8 8 8 8 8 8 8 8 8 8 8 8 7 7 7 7 6 6 6 5 4 4 3 3 2 1 1 2 2 3 3 2 1 3 3 3 3 4 5 5
6 7 7 7 8 8 8 8 8 8 8 8 8 9 8 8 7 7 7 6 7 6 6 5 5 4 4 3 3 2 2 2 2 2 3 2 2 2 1 3 3 3 5
6 7 8 8 8 8 7 7 8 8 8 8 8 8 8 8 8 7 7 6 6 6 6 6 6 6 6 5 4 4 3 2 2 2 2 2 2 2 1 2 3 3 4
7 7 8 8 7 7 7 7 7 7 8 8 8 7 7 7 7 7 7 7 6 6 5 5 6 7 8 7 5 4 4 3 2 2 2 2 2 2 2 2 3 4 4
7 7 7 7 7 7 7 7 7 7 7 7 8 8 7 7 8 11 8 6 6 6 6 5 5 6 8 10 10 9 7 6 5 3 3 3 4 3 3 3 3 2 4
6 6 7 8 8 8 8 7 8 7 7 6 7 7 7 7 9 10 10 7 6 6 6 5 5 5 6 5 7 8 8 9 9 6 5 6 5 5 4 3 3 4 5
6 6 6 7 8 7 7 7 6 5 6 6 6 6 5 4 6 7 8 6 4 5 5 5 5 5 4 5 4 4 5 6 8 7 7 7 6 5 5 5 5 4 4
6 6 7 7 8 8 8 7 6 5 5 4 4 5 4 3 5 7 7 4 3 4 4 4 4 4 4 6 4 5 5 6 7 9 9 9 9 8 6 2 2 2 5
4 5 5 6 6 7 7 6 5 5 5 4 3 3 3 2 3 5 7 3 3 2 2 2 2 3 3 3 4 4 5 5 3 3 4 6 6 6 7 6 5 4 4
2 3 4 4 5 5 5 5 5 5 5 5 4 3 2 1 1 2 4 3 3 2 2 1 1 2 2 3 4 4 5 4 2 2 3 3 3 3 3 4 5 5 5
5 6 5 5 4 5 6 5 5 6 6 5 4 3 2 2 2 2 2 3 2 2 1 1 1 1 1 1 2 2 3 2 1 1 1 2 3 3 3 3 4 5 6
8 8 7 7 7 6 6 6 5 4 4 3 3 3 2 2 2 4 3 2 2 1 0 1 1 1 1 1 1 2 1 0 0 1 2 3 3 3 3 3 3 4 5
9 7 7 7 8 7 6 5 5 4 4 4 3 3 2 2 2 2 2 1 2 2 1 2 2 3 2 2 2 2 1 0 0 1 2 2 2 2 2 2 2 3 3
9 7 7 6 6 7 7 6 5 4 3 4 3 3 3 2 1 2 2 1 1 1 1 2 3 3 3 3 3 2 2 2 1 1 1 2 2 2 2 2 2 2 2
8 6 5 4 4 5 6 7 12 9 10 10 7 5 3 3 3 4 4 4 4 5 5 4 3 3 3 2 3 3 3 2 2 2 1 2 2 3 3 3 2 2 3
7 5 4 4 4 4 5 5 5 6 10 11 10 9 7 7 7 8 8 8 8 7 5 4 3 3 2 2 2 2 2 2 2 2 2 2 2 3 3 3 3 3 4
6 7 5 4 4 4 5 4 4 5 5 4 6 9 9 10 10 10 10 9 7 6 4 4 3 3 2 2 2 2 2 3 2 2 2 3 2 2 3 3 3 4 4
6 5 5 5 5 5 5 5 5 6 5 4 4 5 8 9 10 11 9 6 5 4 4 3 3 3 3 3 3 2 2 2 2 2 2 3 3 2 3 4 4 6 5
7 11 9 7 7 7 6 6 5 5 5 5 5 4 4 6 6 6 5 4 4 3 3 3 3 3 3 2 3 3 3 3 3 3 3 3 3 3 4 5 4 4 4
6 8 12 8 7 7 7 6 6 5 5 5 4 6 7 5 4 4 4 4 3 3 2 2 2 2 2 2 2 3 3 3 4 4 4 4 4 4 4 4 4 5 5
6 6 6 7 7 7 7 6 6 6 6 6 4 5 8 5 4 4 3 3 3 2 2 2 2 2 3 3 3 3 4 4 4 4 4 4 5 5 5 4 5 5 5
7 7 7 7 7 9 8 7 6 6 6 5 5 4 4 4 3 3 3 3 3 3 3 3 3 3 3 3 3 3 3 4 4 5 5 5 5 5 5 5 6 7 6
7 8 8 7 7 7 7 6 6 6 6 5 5 5 4 4 4 4 3 3 3 3 3 3 3 4 5 4 4 3 3 4 5 4 6 6 6 6 5 6 6 7 7
7 7 7 6 6 6 6 6 5 5 5 5 5 4 4 5 5 5 4 4 5 4 5 4 3 4 5 6 5 5 6 7 6 6 5 5 6 7 7 7 7 7 7
7 7 6 6 5 5 5 5 5 5 5 5 4 4 4 4 4 5 4 5 4 4 4 4 4 5 6 5 7 7 7 8 8 7 5 5 5 6 7 6 8 7 7
Wind_Direction
177 175 176 177 173 169 172 177 177 177 177 177 179 178 179 179 177 176 183 183 185 192 190 187 202 191 178 179 167 165 171 161 195 261 261 260 213 218 209 214 221 219 228
171 168 171 168 166 169 174 177 175 177 177 178 176 177 181 182 181 182 190 191 190 195 198 193 209 199 195 195 187 200 197 185 179 230 266 252 232 224 215 221 229 228 230
165 163 162 165 168 172 173 174 175 175 177 177 175 181 185 186 187 190 190 193 197 200 198 199 207 196 207 207 202 207 214 207 181 197 248 255 257 247 227 248 249 251 248
167 166 167 171 175 175 172 172 176 175 177 180 181 185 187 188 190 193 194 197 200 205 205 204 205 201 206 207 209 211 208 206 199 209 246 267 266 262 207 244 268 258 258
170 171 175 174 174 172 173 175 176 179 183 181 180 184 187 190 197 194 197 200 199 206 213 215 215 212 210 207 207 205 199 203 209 221 243 261 267 264 240 233 245 263 268
173 178 178 172 173 176 177 176 177 181 181 179 184 186 191 201 199 195 195 198 194 203 216 223 226 221 222 219 218 210 197 197 207 213 229 235 246 238 238 235 237 255 276
177 180 177 174 179 184 181 178 181 183 180 181 185 185 193 203 199 194 197 195 199 206 210 214 224 222 216 219 225 225 223 222 209 202 219 231 234 227 219 238 233 229 242
178 183 180 179 183 179 174 177 183 180 181 185 187 187 184 197 198 199 200 200 204 210 209 208 214 229 224 213 220 229 234 236 227 221 224 235 233 227 216 222 230 247 262
182 189 186 182 181 177 178 178 175 169 170 171 170 173 171 187 196 198 191 189 204 218 218 215 211 222 238 223 217 232 246 255 248 240 239 247 250 248 234 228 247 250 269
188 191 180 173 172 171 173 169 161 156 161 153 147 150 160 172 179 185 186 183 195 216 229 228 216 220 241 227 216 226 245 258 271 282 267 267 260 259 244 224 227 238 252
131 125 124 134 142 145 140 135 132 135 131 128 127 119 111 109 97 155 175 178 194 203 213 221 234 239 247 244 225 223 237 245 247 256 269 274 272 264 256 240 226 226 238
88 91 93 100 109 112 111 113 118 128 128 129 125 108 80 62 54 65 130 167 172 168 207 234 239 234 240 262 241 247 260 262 267 286 288 286 284 281 275 267 250 239 238
84 82 81 81 78 82 97 104 102 105 115 115 114 113 89 61 47 52 71 104 110 136 94 25 26 35 16 322 289 278 281 280 274 286 283 281 282 288 294 293 289 278 272
88 85 83 84 80 72 74 82 90 94 103 104 104 106 97 71 45 39 43 50 53 60 37 24 38 48 42 9 354 347 343 339 237 272 293 302 318 322 312 307 304 310 306
79 83 80 79 86 82 70 57 69 65 95 117 116 112 101 82 12 53 78 55 51 65 69 55 47 39 34 24 18 14 18 25 5 327 320 313 313 315 308 308 296 295 292
76 75 81 86 88 93 95 76 53 64 68 74 81 94 80 87 78 71 69 70 74 83 84 67 55 46 39 27 21 14 17 14 357 356 352 339 329 323 315 314 311 304 301
76 76 79 89 94 99 104 106 94 61 60 64 64 70 74 74 70 68 68 69 69 79 76 65 54 41 35 27 22 19 4 346 343 351 346 338 333 326 320 319 319 313 302
71 73 79 83 90 93 97 98 98 95 73 47 43 58 67 66 63 60 64 69 56 52 61 59 49 37 31 24 17 10 357 354 357 356 348 338 331 323 320 319 315 308 302
66 67 68 74 80 84 86 86 86 83 80 68 52 44 53 65 60 55 60 66 67 55 50 48 40 32 26 20 10 1 356 349 342 337 335 332 331 330 319 312 308 311 309
60 68 74 73 73 75 78 82 83 83 80 71 60 46 47 61 57 46 49 57 59 55 46 42 32 28 23 14 4 360 355 345 337 331 325 323 319 312 306 306 308 309 303
63 64 69 71 71 75 77 79 78 78 77 72 61 53 66 72 67 56 51 47 48 45 42 39 30 19 12 6 1 354 352 343 337 330 325 317 311 307 301 297 298 297 297
68 67 68 72 72 72 74 75 75 72 70 69 58 51 57 63 61 57 48 37 36 38 41 50 38 23 15 11 5 1 358 348 339 333 326 319 315 309 304 301 300 299 298
68 69 68 68 71 73 72 69 70 70 69 63 57 57 57 56 58 54 43 31 31 34 37 47 45 30 21 14 8 8 358 339 327 321 316 311 307 304 302 301 301 302 299
69 71 73 72 71 72 73 70 68 70 69 64 57 55 53 52 48 44 36 26 27 27 34 39 41 39 29 14 1 356 350 334 323 310 304 297 297 298 300 299 297 297 298
71 73 73 72 72 72 72 70 67 64 63 60 55 52 48 47 42 35 28 27 29 29 31 31 27 25 16 7 358 346 336 331 323 315 301 292 291 293 294 295 295 298 298
72 74 74 73 72 71 71 69 64 61 60 60 57 52 49 46 42 36 30 31 29 25 24 23 18 17 5 355 345 340 333 328 323 317 304 292 293 294 299 296 299 299 298